Akron Canton, OH

7:47 AM EDT on July 22, 2017 (GMT -0400)
Akron-Canton Regional

Weather History for KCAK - May, 2013

Change the Weather History Date:

Saturday, May 11, 2013

  Actual Average Record
Temperature  
Mean Temperature 54 °F 57 °F  
Max Temperature 62 °F 68 °F 88 °F (1936)
Min Temperature 45 °F 47 °F 30 °F (1913)
Degree Days  
Heating Degree Days 11 8  
Month to date heating degree days 20 105  
Since 1 July heating degree days 5665 5981  
Cooling Degree Days 0 1  
Month to date cooling degree days 7 5  
Year to date cooling degree days 14 11  
Moisture  
Dew Point 48 °F    
Average Humidity 85    
Maximum Humidity 97    
Minimum Humidity 72    
Precipitation  
Precipitation 0.16 in 0.14 in 1.18 in (1968)
Month to date precipitation 0.72 1.43  
Year to date precipitation 11.46 12.88  
Snow  
Snow 0.00 in 0.00 in - ()
Month to date snowfall 0.0 0.1  
Since 1 July snowfall 47.2 47.5  
Snow Depth 0.00 in    
Sea Level Pressure  
Sea Level Pressure 29.83 in    
Wind  
Wind Speed 9 mph (WNW)    
Max Wind Speed 28 mph    
Max Gust Speed 37 mph    
Visibility 4 miles    
Events Fog , Rain    
T = Trace of Precipitation, MM = Missing Value Source: NWS Daily Summary

Daily Weather History Graph

Daily Weather History Graph

Search for Another Location

Airport or City:

Trip Planner

Search our weather history database for the weather conditions in past years. The results will help you decide how hot, cold, wet, or windy it might be!

Date:

Astronomy

May. 11, 2013 Rise Set
Actual Time 6:11 AM EDT 8:32 PM EDT
Civil Twilight 5:41 AM EDT 9:03 PM EDT
Nautical Twilight 5:03 AM EDT 9:42 PM EDT
Astronomical Twilight 4:20 AM EDT 10:24 PM EDT
Moon 7:18 AM EDT (5/11) 10:12 PM EDT (5/11)
Length of Visible Light 15h 22m
Length of Day
14h 20m
Waxing Crescent, 3% of the Moon is Illuminated
May 11
Waxing Crescent
May 18
First Quarter
May 25
Full
May 31
Last Quarter
Jun 8
New

Hourly Weather History & Observations

Time (EDT) Temp. Windchill Dew Point Humidity Pressure Visibility Wind Dir Wind Speed Gust Speed Precip Events Conditions
12:51 AM 61.0 °F - 59.0 °F 93% 29.77 in 6.0 mi SW 8.1 mph - N/A   Overcast
1:38 AM 57.2 °F - 53.6 °F 88% 29.79 in 4.0 mi NW 12.7 mph - 0.04 in Rain Light Rain
1:49 AM 55.4 °F - 53.6 °F 94% 29.80 in 2.0 mi NNW 11.5 mph - 0.10 in Rain Heavy Rain
1:51 AM 55.9 °F - 53.1 °F 90% 29.78 in 2.0 mi NNW 11.5 mph - 0.11 in Rain Rain
2:31 AM 53.6 °F - 51.8 °F 94% 29.81 in 3.0 mi NNW 9.2 mph - 0.02 in   Overcast
2:51 AM 53.1 °F - 51.1 °F 93% 29.79 in 3.0 mi NNW 10.4 mph - 0.02 in   Overcast
3:51 AM 51.1 °F - 48.9 °F 92% 29.81 in 0.2 mi North 8.1 mph - N/A Fog Fog
4:51 AM 50.0 °F - 48.9 °F 96% 29.82 in 0.2 mi NNW 6.9 mph - N/A Fog Fog
5:29 AM 48.2 °F - 48.2 °F 100% 29.82 in 1.0 mi NNW 8.1 mph - N/A   Mist
5:47 AM 48.2 °F - 46.4 °F 93% 29.82 in 3.0 mi NW 6.9 mph - N/A   Overcast
5:51 AM 48.9 °F - 46.9 °F 93% 29.82 in 3.0 mi NNW 5.8 mph - N/A   Overcast
6:51 AM 46.9 °F - 45.0 °F 93% 29.84 in 3.0 mi NW 9.2 mph - N/A   Overcast
7:51 AM 46.9 °F - 45.0 °F 93% 29.85 in 3.0 mi NW 6.9 mph - N/A   Overcast
8:08 AM 46.4 °F 41.9 °F 44.6 °F 93% 29.84 in 2.0 mi NNW 9.2 mph - N/A   Overcast
8:51 AM 46.9 °F - 45.0 °F 93% 29.84 in 3.0 mi North 8.1 mph - N/A   Overcast
9:51 AM 46.9 °F - 45.0 °F 93% 29.85 in 4.0 mi NW 6.9 mph - N/A   Overcast
10:51 AM 48.0 °F - 44.1 °F 86% 29.85 in 6.0 mi NNW 5.8 mph - N/A   Overcast
11:51 AM 48.9 °F - 45.0 °F 86% 29.86 in 6.0 mi NW 6.9 mph - N/A   Overcast
12:51 PM 50.0 °F - 46.0 °F 86% 29.85 in 6.0 mi WNW 6.9 mph - N/A   Overcast
1:51 PM 50.0 °F - 46.0 °F 86% 29.86 in 4.0 mi West 9.2 mph - N/A   Overcast
2:51 PM 51.1 °F - 46.0 °F 83% 29.86 in 4.0 mi West 5.8 mph - N/A   Haze
3:51 PM 53.1 °F - 46.9 °F 80% 29.85 in 5.0 mi West 8.1 mph - N/A   Haze
4:51 PM 53.1 °F - 46.9 °F 80% 29.84 in 4.0 mi West 9.2 mph - N/A   Haze
5:51 PM 55.0 °F - 46.9 °F 74% 29.83 in 6.0 mi West 6.9 mph - N/A   Haze
6:51 PM 54.0 °F - 46.0 °F 75% 29.83 in 7.0 mi West 10.4 mph - N/A   Mostly Cloudy
7:51 PM 53.1 °F - 46.0 °F 77% 29.83 in 9.0 mi WSW 13.8 mph - N/A   Scattered Clouds
8:51 PM 53.1 °F - 46.0 °F 77% 29.83 in 9.0 mi SW 6.9 mph - N/A   Overcast
9:51 PM 53.1 °F - 46.9 °F 80% 29.83 in 9.0 mi SW 6.9 mph - N/A   Overcast
10:51 PM 53.1 °F - 48.0 °F 83% 29.84 in 4.0 mi WSW 9.2 mph - 0.00 in Rain Rain
11:16 PM 48.2 °F - 44.6 °F 87% 29.86 in 4.0 mi NW 15.0 mph 27.6 mph 0.03 in Rain Light Rain
11:51 PM 46.9 °F - 42.1 °F 83% 29.88 in 10.0 mi WNW 13.8 mph 23.0 mph 0.03 in   Overcast